N1OTX Weather Reports


Display with metric or nautical units.
time (UTC)temp
F
wind
direction
speed
MPH
gust
MPH
rain 1hr
in
rain 24hr
in
rain mn
in
humidity
%
barometer
mb
20260510060029 51 0.0 0.0 0.00 0.46 0.00 99 1011.3
20260510055527 51 0.0 0.0 0.00 0.46 0.00 99 1011.3
20260510055027 51 0.0 0.0 0.00 0.46 0.00 99 1011.4
20260510054526 51 0.0 0.0 0.00 0.46 0.00 99 1011.5
20260510054048 51 0.0 0.0 0.00 0.46 0.00 99 1011.7
20260510053528 51 0.0 0.0 0.00 0.46 0.00 99 1011.7
20260510053028 51 0.0 0.0 0.00 0.46 0.00 99 1011.8
20260510052527 51 0.0 0.0 0.00 0.46 0.00 99 1011.8
20260510052108 51 0.0 0.0 0.00 0.46 0.00 99 1011.7
20260510051548 51 0.0 0.0 0.00 0.46 0.00 99 1011.7
20260510051027 51 0.0 0.0 0.00 0.46 0.00 99 1011.8
20260510050527 51 0.0 0.0 0.00 0.46 0.00 99 1011.8
20260510050027 51 0.0 0.0 0.00 0.46 0.00 99 1011.8
20260510045527 51 0.0 0.0 0.00 0.46 0.00 99 1011.9
20260510045027 51 0.0 0.0 0.01 0.46 0.00 99 1011.9
20260510044527 51 0.0 0.0 0.01 0.46 0.00 99 1011.9
20260510044027 51 0.0 0.0 0.01 0.46 0.00 98 1011.9
20260510043547 51 0.0 0.0 0.01 0.46 0.00 98 1012.0
20260510043026 51 147 0.0 4.0 0.01 0.46 0.00 98 1012.0
20260510042548 51 172 1.0 4.0 0.01 0.46 0.00 98 1011.9
20260510042028 51 163 0.0 3.0 0.01 0.46 0.00 98 1011.9
20260510041528 51 159 1.0 4.0 0.01 0.46 0.00 98 1011.7
20260510041108 51 118 1.0 9.0 0.01 0.46 0.00 98 1011.5
20260510040548 51 110 0.0 1.0 0.00 0.45 0.00 98 1011.7
20260510040028 51 128 1.0 4.0 0.00 0.45 0.00 98 1011.8
20260510035527 51 154 1.0 3.0 0.00 0.45 0.45 98 1011.9
20260510035027 51 205 0.0 1.0 0.00 0.45 0.45 98 1011.9
20260510034527 51 0.0 0.0 0.00 0.45 0.45 98 1012.0
20260510034027 51 0.0 0.0 0.00 0.45 0.45 98 1012.0
20260510033527 51 222 0.0 1.0 0.00 0.45 0.45 97 1012.2
20260510033026 52 0.0 0.0 0.00 0.45 0.45 97 1012.2
20260510032526 52 222 0.0 1.0 0.00 0.45 0.45 97 1012.3
20260510032026 52 0.0 0.0 0.00 0.45 0.45 96 1012.2
20260510031548 52 196 0.0 2.0 0.00 0.45 0.45 96 1012.2
20260510031028 52 134 0.0 2.0 0.00 0.45 0.45 95 1012.3
20260510030528 52 149 0.0 3.0 0.00 0.45 0.45 95 1012.3
20260510030028 52 172 1.0 4.0 0.00 0.45 0.45 96 1012.3
20260510025528 52 124 1.0 3.0 0.00 0.45 0.45 96 1012.4
20260510025027 52 165 0.0 4.0 0.00 0.45 0.45 96 1012.4
20260510024527 52 160 2.0 7.0 0.00 0.45 0.45 96 1012.3
20260510024027 52 171 1.0 3.0 0.00 0.45 0.45 96 1012.5
20260510023527 52 219 1.0 4.0 0.00 0.45 0.45 96 1012.6
20260510023029 52 174 0.0 3.0 0.00 0.45 0.45 96 1012.5
20260510022528 52 122 2.0 8.0 0.00 0.45 0.45 96 1012.6
20260510022028 52 159 1.0 8.0 0.00 0.45 0.45 96 1012.6
20260510021528 52 156 2.0 6.0 0.00 0.45 0.45 96 1012.6
20260510021028 52 188 1.0 4.0 0.00 0.45 0.45 97 1012.6
20260510020528 52 177 3.0 10.0 0.00 0.44 0.44 97 1012.7
20260510020028 52 190 2.0 10.0 0.00 0.44 0.44 99 1012.7
20260510015527 52 152 2.0 7.0 0.00 0.44 0.44 99 1012.7
20260510015048 52 178 2.0 9.0 0.00 0.44 0.44 99 1012.8
20260510014527 52 194 1.0 6.0 0.00 0.44 0.44 99 1012.8
20260510014027 52 133 1.0 6.0 0.00 0.44 0.44 99 1012.7
20260510013527 52 196 1.0 3.0 0.00 0.44 0.44 99 1012.8
20260510013026 51 196 1.0 2.0 0.01 0.44 0.44 99 1012.9
20260510012528 51 157 0.0 1.0 0.01 0.44 0.44 99 1012.9
20260510012028 50 0.0 1.0 0.01 0.44 0.44 99 1012.7
20260510011548 50 157 0.0 2.0 0.02 0.44 0.44 99 1012.7
20260510011048 49 0.0 0.0 0.02 0.44 0.44 99 1012.7
20260510010527 49 0.0 0.0 0.02 0.44 0.44 99 1012.7
20260510010028 49 0.0 0.0 0.03 0.44 0.44 99 1012.7
20260510005527 49 0.0 0.0 0.04 0.44 0.44 99 1012.7
20260510005029 49 0.0 0.0 0.06 0.44 0.44 99 1012.7
20260510004529 49 0.0 0.0 0.07 0.44 0.44 99 1012.7
20260510004049 49 0.0 0.0 0.08 0.44 0.44 99 1012.7
20260510003549 49 146 0.0 1.0 0.08 0.44 0.44 99 1012.7
20260510003029 49 0.0 0.0 0.09 0.44 0.44 99 1012.7
20260510002529 49 0.0 0.0 0.10 0.44 0.44 99 1012.7
20260510002028 49 145 0.0 1.0 0.11 0.43 0.43 99 1012.7
20260510001528 49 0.0 0.0 0.12 0.43 0.43 99 1012.8
20260510001028 49 0.0 0.0 0.13 0.42 0.42 99 1012.9
20260510000528 49 0.0 0.0 0.13 0.42 0.42 99 1013.0
20260510000028 49 0.0 0.0 0.14 0.42 0.42 99 1013.0
20260509235529 49 137 0.0 1.0 0.15 0.40 0.40 99 1013.0
20260509235028 49 0.0 0.0 0.14 0.38 0.38 99 1013.1
20260509234527 49 122 0.0 1.0 0.14 0.37 0.37 99 1013.1
20260509234050 49 0.0 0.0 0.13 0.36 0.36 99 1013.0
20260509233529 49 106 0.0 1.0 0.13 0.36 0.36 99 1012.9
20260509233029 49 0.0 0.0 0.13 0.35 0.35 99 1012.8
20260509232529 49 106 0.0 1.0 0.12 0.34 0.34 99 1012.9
20260509232029 49 106 0.0 1.0 0.11 0.32 0.32 99 1012.9
20260509231528 49 105 0.0 1.0 0.10 0.31 0.31 99 1012.8
20260509231028 49 105 0.0 2.0 0.09 0.30 0.30 99 1012.7
20260509230528 49 109 1.0 2.0 0.08 0.29 0.29 99 1012.6
20260509230028 49 65 1.0 2.0 0.08 0.28 0.28 99 1012.9
20260509225528 49 21 0.0 1.0 0.06 0.26 0.26 99 1012.8
20260509225028 49 0.0 0.0 0.06 0.24 0.24 99 1012.6
20260509224528 50 0.0 0.0 0.05 0.23 0.23 99 1012.6
20260509224027 50 0.0 0.0 0.05 0.23 0.23 99 1012.5
20260509223528 50 0.0 0.0 0.05 0.22 0.22 99 1012.4
20260509223029 50 0.0 0.0 0.05 0.22 0.22 99 1012.4
20260509222529 50 0.0 0.0 0.05 0.22 0.22 98 1012.4
20260509222029 50 0.0 0.0 0.06 0.22 0.22 98 1012.5
20260509221529 50 0.0 0.0 0.06 0.21 0.21 98 1012.5
20260509221029 50 0.0 0.0 0.07 0.21 0.21 98 1012.6
20260509220528 50 0.0 0.0 0.07 0.21 0.21 98 1012.6
20260509220028 50 0.0 0.0 0.08 0.20 0.20 98 1012.5
20260509215528 50 5 0.0 1.0 0.09 0.20 0.20 98 1012.5
20260509215028 50 0.0 0.0 0.08 0.18 0.18 98 1012.5
20260509214527 50 0.0 0.0 0.08 0.18 0.18 98 1012.4
20260509214048 50 300 0.0 1.0 0.08 0.17 0.17 98 1012.3
20260509213548 50 0.0 0.0 0.08 0.17 0.17 98 1012.4
20260509213027 50 297 0.0 1.0 0.08 0.17 0.17 98 1012.4
20260509212528 50 42 1.0 3.0 0.08 0.17 0.17 98 1012.4
20260509212028 50 115 0.0 2.0 0.08 0.16 0.16 97 1012.4
20260509211527 50 305 0.0 1.0 0.08 0.15 0.15 97 1012.4
20260509211027 50 304 0.0 3.0 0.09 0.14 0.14 97 1012.3
20260509210527 50 332 0.0 3.0 0.09 0.14 0.14 96 1012.2
20260509210027 50 79 1.0 4.0 0.07 0.12 0.12 96 1012.3
20260509205527 51 11 0.0 1.0 0.07 0.11 0.11 96 1012.1
20260509205027 51 54 0.0 1.0 0.07 0.11 0.11 96 1012.3
20260509204547 51 0.0 0.0 0.06 0.10 0.10 95 1012.3
20260509204027 51 0.0 0.0 0.06 0.10 0.10 95 1012.2
20260509203527 51 0.0 0.0 0.05 0.09 0.09 95 1012.3
20260509203026 51 0.0 0.0 0.05 0.09 0.09 94 1012.3
20260509202526 52 0.0 0.0 0.04 0.08 0.08 93 1012.4
20260509202029 52 79 0.0 1.0 0.04 0.07 0.07 92 1012.4
20260509201528 52 79 0.0 1.0 0.03 0.07 0.07 92 1012.4
20260509201028 53 84 0.0 2.0 0.02 0.05 0.05 90 1012.3
20260509200608 53 93 0.0 2.0 0.01 0.05 0.05 89 1012.4
20260509200027 53 92 0.0 2.0 0.01 0.05 0.05 87 1012.4
20260509195549 53 104 0.0 3.0 0.00 0.04 0.04 85 1012.5
20260509195048 54 77 1.0 2.0 0.00 0.04 0.04 85 1012.5
20260509194548 54 79 1.0 3.0 0.00 0.04 0.04 84 1012.5
20260509194028 54 52 0.0 2.0 0.00 0.04 0.04 84 1012.5
20260509193529 54 73 0.0 3.0 0.00 0.04 0.04 84 1012.6
20260509193048 54 70 0.0 2.0 0.00 0.04 0.04 84 1012.4
20260509192527 54 75 0.0 3.0 0.00 0.04 0.04 84 1012.5
20260509192028 54 79 1.0 7.0 0.00 0.04 0.04 83 1012.3
20260509191527 54 84 1.0 3.0 0.00 0.04 0.04 84 1012.4
20260509191028 54 121 0.0 3.0 0.00 0.04 0.04 85 1012.2
20260509190527 54 86 1.0 6.0 0.00 0.04 0.04 84 1012.3
20260509190029 54 76 1.0 3.0 0.00 0.04 0.04 84 1012.3
20260509185529 54 95 1.0 6.0 0.00 0.04 0.04 85 1012.2
20260509185048 54 88 1.0 3.0 0.00 0.04 0.04 84 1012.3
20260509184528 54 267 1.0 2.0 0.00 0.04 0.04 84 1012.4
20260509184028 54 154 0.0 1.0 0.00 0.04 0.04 85 1012.1
20260509183528 53 74 1.0 7.0 0.00 0.04 0.04 85 1012.2
20260509183028 53 91 1.0 4.0 0.00 0.04 0.04 85 1012.3
20260509182548 53 82 1.0 4.0 0.00 0.04 0.04 84 1012.7
20260509182028 53 82 1.0 3.0 0.00 0.04 0.04 83 1013.3
20260509181528 53 80 0.0 1.0 0.00 0.04 0.04 83 1013.4
20260509181028 53 90 0.0 2.0 0.00 0.04 0.04 83 1013.5
20260509180527 53 111 0.0 2.0 0.00 0.04 0.04 82 1013.6
20260509180027 53 138 0.0 3.0 0.00 0.04 0.04 82 1013.5
20260509175547 53 129 1.0 4.0 0.00 0.04 0.04 82 1013.4
20260509175027 53 77 1.0 3.0 0.00 0.04 0.04 81 1013.4
20260509174529 53 98 1.0 4.0 0.00 0.04 0.04 81 1013.2
20260509174049 53 110 2.0 6.0 0.00 0.04 0.04 81 1013.2
20260509173548 53 98 1.0 6.0 0.00 0.04 0.04 81 1013.3
20260509173028 53 79 1.0 4.0 0.00 0.04 0.04 81 1013.5
20260509172528 53 89 2.0 6.0 0.00 0.04 0.04 80 1013.4
20260509172028 53 86 2.0 4.0 0.00 0.04 0.04 81 1013.5
20260509171528 53 74 1.0 3.0 0.00 0.04 0.04 79 1013.4
20260509171048 53 84 1.0 4.0 0.00 0.04 0.04 80 1013.5
20260509170528 53 90 2.0 6.0 0.00 0.04 0.04 78 1013.6
20260509170028 53 109 1.0 6.0 0.00 0.04 0.04 77 1013.7
20260509165527 53 94 1.0 2.0 0.00 0.04 0.04 77 1013.5
20260509165027 53 75 1.0 6.0 0.00 0.04 0.04 77 1013.6
20260509164527 53 87 1.0 3.0 0.00 0.04 0.04 76 1013.7
20260509164027 53 93 1.0 3.0 0.00 0.04 0.04 76 1013.8
20260509163527 53 100 1.0 3.0 0.01 0.04 0.04 76 1013.9
20260509163027 53 115 1.0 4.0 0.01 0.04 0.04 75 1013.9
20260509162526 53 184 0.0 2.0 0.01 0.04 0.04 77 1013.8
20260509162027 53 109 1.0 3.0 0.01 0.04 0.04 76 1013.8
20260509161547 52 135 1.0 4.0 0.01 0.04 0.04 77 1013.8
20260509161028 52 129 1.0 4.0 0.01 0.04 0.04 77 1013.9
20260509160528 52 122 0.0 2.0 0.01 0.04 0.04 79 1014.0
20260509160028 51 134 0.0 2.0 0.01 0.04 0.04 80 1014.1
20260509155528 51 114 1.0 6.0 0.01 0.04 0.04 81 1014.0
20260509155028 51 75 1.0 4.0 0.01 0.03 0.03 83 1013.8
20260509154527 51 63 0.0 3.0 0.01 0.03 0.03 82 1014.0
20260509154027 51 80 1.0 6.0 0.01 0.03 0.03 82 1014.0
20260509153527 51 81 2.0 6.0 0.00 0.03 0.03 83 1014.0
20260509153027 51 85 1.0 6.0 0.00 0.03 0.03 86 1014.0
20260509152527 50 90 0.0 2.0 0.01 0.03 0.03 88 1014.1
20260509152029 50 80 0.0 1.0 0.01 0.03 0.03 87 1014.3
20260509151529 50 80 0.0 2.0 0.01 0.03 0.03 89 1014.4
20260509151029 49 90 0.0 1.0 0.01 0.03 0.03 90 1014.4
20260509150528 49 90 0.0 1.0 0.01 0.03 0.03 91 1014.3
20260509150028 49 90 0.0 1.0 0.01 0.03 0.03 90 1014.4
20260509145548 49 90 0.0 1.0 0.01 0.03 0.03 90 1014.5
20260509145028 49 90 0.0 1.0 0.01 0.03 0.03 88 1014.7
20260509144528 49 108 0.0 2.0 0.01 0.03 0.03 89 1014.8
20260509144028 48 0.0 0.0 0.01 0.03 0.03 89 1015.0
20260509143528 48 0.0 0.0 0.01 0.03 0.03 88 1014.9
20260509143027 48 0.0 0.0 0.01 0.03 0.03 87 1015.0
20260509142527 48 0.0 0.0 0.01 0.02 0.02 85 1015.0
20260509142028 48 0.0 0.0 0.01 0.02 0.02 86 1015.1
20260509141527 48 0.0 0.0 0.01 0.02 0.02 88 1015.1
20260509141027 48 0.0 1.0 0.01 0.02 0.02 85 1015.2
20260509140529 47 130 0.0 2.0 0.01 0.02 0.02 86 1015.1
20260509140029 47 186 0.0 2.0 0.01 0.02 0.02 87 1015.3
20260509135529 47 180 1.0 3.0 0.01 0.02 0.02 89 1015.2
20260509135028 47 199 0.0 1.0 0.01 0.02 0.02 90 1015.2
20260509134528 47 200 0.0 2.0 0.01 0.02 0.02 91 1015.1
20260509134028 47 199 0.0 2.0 0.01 0.02 0.02 91 1015.2
20260509133528 46 0.0 0.0 0.01 0.02 0.02 90 1015.0
20260509133028 47 0.0 0.0 0.01 0.01 0.01 91 1015.0
20260509132548 46 0.0 0.0 0.01 0.01 0.01 91 1014.9
20260509132028 46 0.0 0.0 0.01 0.01 0.01 92 1014.9
20260509131527 46 0.0 0.0 0.00 0.01 0.01 93 1014.8
20260509131047 46 0.0 0.0 0.00 0.01 0.01 94 1014.8
20260509130527 46 0.0 0.0 0.01 0.01 0.01 94 1014.9
20260509130047 45 0.0 0.0 0.01 0.01 0.01 94 1014.9
20260509125529 45 0.0 0.0 0.01 0.01 0.01 94 1014.9
20260509125029 45 0.0 0.0 0.01 0.01 0.01 94 1015.0
20260509124529 45 0.0 0.0 0.01 0.01 0.01 94 1015.1
20260509124028 45 0.0 0.0 0.01 0.01 0.01 94 1015.1
20260509123528 45 0.0 0.0 0.01 0.01 0.01 93 1015.1
20260509123029 45 0.0 0.0 0.01 0.01 0.01 92 1015.2
20260509122528 45 0.0 0.0 0.01 0.01 0.01 92 1015.2
20260509122028 44 0.0 0.0 0.01 0.01 0.01 91 1015.2
20260509121528 44 0.0 0.0 0.01 0.01 0.01 91 1015.3
20260509121049 44 0.0 0.0 0.01 0.01 0.01 90 1015.6
20260509120527 44 210 0.0 1.0 0.00 0.00 0.00 89 1015.5
20260509120027 44 204 0.0 1.0 0.00 0.00 0.00 88 1015.4
20260509115527 44 0.0 0.0 0.00 0.00 0.00 88 1015.3
20260509115027 44 93 0.0 2.0 0.00 0.00 0.00 88 1015.5
20260509114547 44 170 0.0 2.0 0.00 0.00 0.00 87 1015.5
20260509114029 44 212 1.0 2.0 0.00 0.00 0.00 86 1015.5
20260509113549 44 0.0 0.0 0.00 0.00 0.00 84 1015.3
20260509113049 44 24 0.0 1.0 0.00 0.00 0.00 85 1015.4
20260509112528 43 0.0 0.0 0.00 0.00 0.00 86 1015.4
20260509112049 43 19 0.0 1.0 0.00 0.00 0.00 88 1015.5
20260509111528 42 0.0 0.0 0.00 0.00 0.00 88 1015.4
20260509111028 42 0.0 0.0 0.00 0.00 0.00 88 1015.2
20260509110528 41 0.0 0.0 0.00 0.00 0.00 88 1015.3
20260509110028 41 0.0 0.0 0.00 0.00 0.00 89 1015.3
20260509105528 41 0.0 0.0 0.00 0.00 0.00 90 1015.3
20260509105029 40 0.0 0.0 0.00 0.00 0.00 91 1015.3
20260509104529 40 0.0 0.0 0.00 0.00 0.00 91 1015.4
20260509104028 40 0.0 0.0 0.00 0.00 0.00 92 1015.3
20260509103528 39 0.0 0.0 0.00 0.00 0.00 92 1015.3
20260509103028 39 0.0 0.0 0.00 0.00 0.00 93 1015.2
20260509102528 39 0.0 0.0 0.00 0.00 0.00 94 1015.1
20260509102028 38 0.0 0.0 0.00 0.00 0.00 94 1015.0
20260509101528 38 0.0 0.0 0.00 0.00 0.00 94 1014.9
20260509101028 37 0.0 0.0 0.00 0.00 0.00 94 1015.0
20260509100527 37 0.0 0.0 0.00 0.00 0.00 94 1014.8
20260509100027 37 0.0 0.0 0.00 0.00 0.00 94 1014.7
20260509095527 37 0.0 0.0 0.00 0.00 0.00 94 1014.7
20260509095027 37 0.0 0.0 0.00 0.00 0.00 94 1014.5
20260509094547 37 0.0 0.0 0.00 0.00 0.00 94 1014.5
20260509094049 37 0.0 0.0 0.00 0.00 0.00 94 1014.5
20260509093529 37 0.0 0.0 0.00 0.00 0.00 94 1014.5
20260509093029 36 0.0 0.0 0.00 0.00 0.00 95 1014.5
20260509092528 36 0.0 0.0 0.00 0.00 0.00 95 1014.4
20260509092028 36 0.0 0.0 0.00 0.00 0.00 95 1014.4
20260509091528 36 0.0 0.0 0.00 0.00 0.00 95 1014.4
20260509091028 36 0.0 0.0 0.00 0.00 0.00 95 1014.4
20260509090548 36 0.0 0.0 0.00 0.00 0.00 95 1014.4
20260509090028 36 0.0 0.0 0.00 0.00 0.00 94 1014.3
20260509085528 36 0.0 0.0 0.00 0.00 0.00 94 1014.2
20260509085028 36 0.0 0.0 0.00 0.00 0.00 94 1014.3
20260509084527 36 0.0 0.0 0.00 0.00 0.00 94 1014.3
20260509084027 36 0.0 0.0 0.00 0.00 0.00 94 1014.1
20260509083527 36 0.0 0.0 0.00 0.00 0.00 94 1014.2
20260509083027 36 0.0 0.0 0.00 0.00 0.00 94 1014.2
20260509082549 36 0.0 0.0 0.00 0.00 0.00 93 1014.2
20260509082049 36 0.0 0.0 0.00 0.00 0.00 92 1014.3
20260509081548 36 0.0 0.0 0.00 0.00 0.00 92 1014.2
20260509081029 36 0.0 0.0 0.00 0.00 0.00 92 1014.2
20260509080528 36 0.0 0.0 0.00 0.00 0.00 92 1014.2
20260509080049 37 0.0 0.0 0.00 0.00 0.00 92 1014.2
20260509075528 37 0.0 0.0 0.00 0.00 0.00 92 1014.3
20260509075029 37 0.0 0.0 0.00 0.00 0.00 91 1014.2
20260509074528 37 0.0 0.0 0.00 0.00 0.00 90 1014.5
20260509074028 37 0.0 0.0 0.00 0.00 0.00 90 1014.4
20260509073548 37 0.0 0.0 0.00 0.00 0.00 90 1014.4
20260509073027 37 0.0 0.0 0.00 0.00 0.00 90 1014.4
20260509072527 38 0.0 0.0 0.00 0.00 0.00 90 1014.5
20260509072048 38 0.0 0.0 0.00 0.00 0.00 90 1014.3
20260509071547 38 0.0 0.0 0.00 0.00 0.00 89 1014.4
20260509071027 38 16 0.0 1.0 0.00 0.00 0.00 89 1014.3
20260509070528 38 16 0.0 1.0 0.00 0.00 0.00 89 1014.2
20260509070028 38 0.0 0.0 0.00 0.00 0.00 89 1014.1
20260509065548 38 0.0 0.0 0.00 0.00 0.00 89 1013.9
20260509065028 38 0.0 0.0 0.00 0.00 0.00 89 1014.0
20260509064528 38 0.0 0.0 0.00 0.00 0.00 89 1014.0
20260509064028 38 0.0 0.0 0.00 0.00 0.00 89 1014.1
20260509063527 38 0.0 0.0 0.00 0.00 0.00 88 1014.2
20260509063028 38 0.0 0.0 0.00 0.00 0.00 89 1014.1
20260509062548 38 0.0 0.0 0.00 0.00 0.00 89 1014.0
20260509062027 38 0.0 0.0 0.00 0.00 0.00 88 1014.0
20260509061527 38 0.0 0.0 0.00 0.00 0.00 88 1014.0
20260509061047 38 0.0 0.0 0.00 0.00 0.00 88 1014.0
20260509060527 38 0.0 0.0 0.00 0.00 0.00 88 1013.8